Time,TemperatureF,DewpointF,PressureIn,WindDirection,WindDirectionDegrees,WindSpeedMPH,WindSpeedGustMPH,Humidity,HourlyPrecipIn,Conditions,Clouds,dailyrainin,SoftwareType,DateUTC
2013-11-07 00:00:00,43.2,36.1,30.37,ENE,66,0.0,0.0,76,0.00,,---,0.00,VWS V14.00,2013-11-07 06:00:00,
2013-11-07 00:10:00,42.8,35.8,30.34,ENE,69,0.0,0.0,76,0.00,,---,0.00,VWS V14.00,2013-11-07 06:10:00,
2013-11-07 00:20:00,42.4,35.4,30.34,ENE,67,0.0,0.0,76,0.00,,---,0.00,VWS V14.00,2013-11-07 06:20:00,
2013-11-07 00:30:00,42.1,35.1,30.37,ENE,68,0.0,0.0,76,0.00,,---,0.00,VWS V14.00,2013-11-07 06:30:00,
2013-11-07 00:40:00,41.9,35.2,30.37,ENE,68,0.0,0.0,77,0.00,,---,0.00,VWS V14.00,2013-11-07 06:40:00,
2013-11-07 00:50:00,41.7,35.0,30.37,ENE,69,0.0,0.0,77,0.00,,---,0.00,VWS V14.00,2013-11-07 06:50:00,
2013-11-07 01:00:00,41.5,34.9,30.37,ENE,67,0.0,0.0,77,0.00,,---,0.00,VWS V14.00,2013-11-07 07:00:00,
2013-11-07 01:10:00,41.5,35.2,30.37,ENE,69,0.0,0.0,78,0.00,,---,0.00,VWS V14.00,2013-11-07 07:10:00,
2013-11-07 01:20:00,41.5,35.2,30.37,ENE,67,0.0,0.0,78,0.00,,---,0.00,VWS V14.00,2013-11-07 07:20:00,
2013-11-07 01:30:00,41.2,34.8,30.37,ENE,68,0.0,0.0,78,0.00,,---,0.00,VWS V14.00,2013-11-07 07:30:00,
2013-11-07 01:40:00,41.0,34.7,30.37,ENE,67,0.0,0.0,78,0.00,,---,0.00,VWS V14.00,2013-11-07 07:40:00,
2013-11-07 01:50:00,40.6,34.7,30.37,ENE,67,0.0,0.0,79,0.00,,---,0.00,VWS V14.00,2013-11-07 07:50:00,
2013-11-07 02:00:00,40.3,34.3,30.37,ENE,68,0.0,0.0,79,0.00,,---,0.00,VWS V14.00,2013-11-07 08:00:00,
2013-11-07 02:10:00,39.9,34.3,30.37,ENE,67,0.0,0.0,80,0.00,,---,0.00,VWS V14.00,2013-11-07 08:10:00,
2013-11-07 02:20:00,39.7,34.1,30.37,ENE,69,0.0,0.0,80,0.00,,---,0.00,VWS V14.00,2013-11-07 08:20:00,
2013-11-07 02:30:00,39.4,33.7,30.37,ENE,68,0.0,0.0,80,0.00,,---,0.00,VWS V14.00,2013-11-07 08:30:00,
2013-11-07 02:40:00,39.4,34.0,30.37,ENE,67,0.0,0.0,81,0.00,,---,0.00,VWS V14.00,2013-11-07 08:40:00,
2013-11-07 02:50:00,39.4,34.0,30.37,ENE,66,0.0,0.0,81,0.00,,---,0.00,VWS V14.00,2013-11-07 08:50:00,
2013-11-07 03:00:00,39.2,33.9,30.37,ENE,66,0.0,0.0,81,0.00,,---,0.00,VWS V14.00,2013-11-07 09:00:00,
2013-11-07 03:10:00,39.2,34.2,30.37,ENE,67,0.0,0.0,82,0.00,,---,0.00,VWS V14.00,2013-11-07 09:10:00,
2013-11-07 03:20:00,38.8,33.8,30.37,ENE,69,0.0,0.0,82,0.00,,---,0.00,VWS V14.00,2013-11-07 09:20:00,
2013-11-07 03:30:00,38.8,33.8,30.37,ENE,68,0.0,0.0,82,0.00,,---,0.00,VWS V14.00,2013-11-07 09:30:00,
2013-11-07 03:40:00,38.5,33.5,30.37,ENE,69,0.0,0.0,82,0.00,,---,0.00,VWS V14.00,2013-11-07 09:40:00,
2013-11-07 03:50:00,38.3,33.6,30.37,ENE,69,0.0,0.0,83,0.00,,---,0.00,VWS V14.00,2013-11-07 09:50:00,
2013-11-07 04:00:00,38.1,33.4,30.37,ENE,66,0.0,0.0,83,0.00,,---,0.00,VWS V14.00,2013-11-07 10:00:00,
2013-11-07 04:10:00,38.1,33.4,30.40,ENE,68,0.0,0.0,83,0.00,,---,0.00,VWS V14.00,2013-11-07 10:10:00,
2013-11-07 04:20:00,38.1,33.7,30.40,ENE,68,0.0,0.0,84,0.00,,---,0.00,VWS V14.00,2013-11-07 10:20:00,
2013-11-07 04:30:00,38.1,33.7,30.40,ENE,68,0.0,0.0,84,0.00,,---,0.00,VWS V14.00,2013-11-07 10:30:00,
2013-11-07 04:40:00,37.9,33.5,30.40,ENE,67,0.0,0.0,84,0.00,,---,0.00,VWS V14.00,2013-11-07 10:40:00,
2013-11-07 04:50:00,37.8,33.4,30.40,ENE,68,0.0,0.0,84,0.00,,---,0.00,VWS V14.00,2013-11-07 10:50:00,
2013-11-07 05:00:00,37.6,33.5,30.40,ENE,69,0.0,0.0,85,0.00,,---,0.00,VWS V14.00,2013-11-07 11:00:00,
2013-11-07 05:10:00,37.4,33.3,30.40,ENE,68,0.0,0.0,85,0.00,,---,0.00,VWS V14.00,2013-11-07 11:10:00,
2013-11-07 05:20:00,37.4,33.3,30.40,ENE,69,0.0,0.0,85,0.00,,---,0.00,VWS V14.00,2013-11-07 11:20:00,
2013-11-07 05:30:00,37.2,33.1,30.42,ENE,69,0.0,0.0,85,0.00,,---,0.00,VWS V14.00,2013-11-07 11:30:00,
2013-11-07 05:40:00,37.0,33.0,30.42,ENE,67,0.0,0.0,85,0.00,,---,0.00,VWS V14.00,2013-11-07 11:40:00,
2013-11-07 05:50:00,37.0,33.0,30.42,ENE,67,0.0,0.0,85,0.00,,---,0.00,VWS V14.00,2013-11-07 11:50:00,
2013-11-07 06:00:00,37.0,33.2,30.42,ENE,69,0.0,0.0,86,0.00,,---,0.00,VWS V14.00,2013-11-07 12:00:00,
2013-11-07 06:10:00,37.0,33.2,30.42,ENE,68,0.0,0.0,86,0.00,,---,0.00,VWS V14.00,2013-11-07 12:10:00,
2013-11-07 06:20:00,36.9,33.1,30.42,ENE,67,0.0,0.0,86,0.00,,---,0.00,VWS V14.00,2013-11-07 12:20:00,
2013-11-07 06:30:00,36.9,33.1,30.42,ENE,69,0.0,0.0,86,0.00,,---,0.00,VWS V14.00,2013-11-07 12:30:00,
2013-11-07 06:40:00,36.9,33.1,30.45,ENE,69,0.0,0.0,86,0.00,,---,0.00,VWS V14.00,2013-11-07 12:40:00,
2013-11-07 06:50:00,36.9,33.1,30.45,ENE,68,0.0,0.0,86,0.00,,---,0.00,VWS V14.00,2013-11-07 12:50:00,
2013-11-07 06:59:00,36.9,33.4,30.45,ENE,68,0.0,0.0,87,0.00,,---,0.00,VWS V14.00,2013-11-07 12:59:00,
2013-11-07 07:09:00,36.9,33.4,30.45,ENE,70,0.0,0.0,87,0.00,,---,0.00,VWS V14.00,2013-11-07 13:09:00,
2013-11-07 07:19:00,37.0,33.5,30.45,ENE,67,0.0,0.0,87,0.00,,---,0.00,VWS V14.00,2013-11-07 13:19:00,
2013-11-07 07:29:00,37.4,33.9,30.45,ENE,69,0.0,0.0,87,0.00,,---,0.00,VWS V14.00,2013-11-07 13:29:00,
2013-11-07 07:39:00,37.6,34.3,30.45,ENE,65,0.0,0.0,88,0.00,,---,0.00,VWS V14.00,2013-11-07 13:39:00,
2013-11-07 07:49:00,38.3,35.1,30.45,ENE,66,0.0,0.0,88,0.00,,---,0.00,VWS V14.00,2013-11-07 13:49:00,
2013-11-07 07:59:00,39.4,36.1,30.48,ENE,68,0.0,0.0,88,0.00,,---,0.00,VWS V14.00,2013-11-07 13:59:00,
2013-11-07 08:09:00,40.5,37.2,30.48,ENE,64,0.0,0.0,88,0.00,,---,0.00,VWS V14.00,2013-11-07 14:09:00,
2013-11-07 08:19:00,41.7,38.7,30.48,ENE,66,0.0,0.0,89,0.00,,---,0.00,VWS V14.00,2013-11-07 14:19:00,
2013-11-07 08:29:00,43.0,40.0,30.48,ENE,67,0.0,0.0,89,0.00,,---,0.00,VWS V14.00,2013-11-07 14:29:00,
2013-11-07 08:39:00,44.2,40.9,30.48,ENE,71,0.0,0.0,88,0.00,,---,0.00,VWS V14.00,2013-11-07 14:39:00,
2013-11-07 08:49:00,45.5,41.9,30.48,ENE,69,0.0,0.0,87,0.00,,---,0.00,VWS V14.00,2013-11-07 14:49:00,
2013-11-07 08:59:00,46.8,42.8,30.48,ENE,70,0.0,0.0,86,0.00,,---,0.00,VWS V14.00,2013-11-07 14:59:00,
2013-11-07 09:09:00,47.7,43.4,30.48,ENE,66,0.0,0.0,85,0.00,,---,0.00,VWS V14.00,2013-11-07 15:09:00,
2013-11-07 09:19:00,48.6,44.0,30.48,ENE,59,0.0,0.0,84,0.00,,---,0.00,VWS V14.00,2013-11-07 15:19:00,
2013-11-07 09:29:00,49.1,43.5,30.48,ENE,59,0.0,0.0,81,0.00,,---,0.00,VWS V14.00,2013-11-07 15:29:00,
2013-11-07 09:39:00,49.8,43.9,30.48,ENE,58,0.0,0.0,80,0.00,,---,0.00,VWS V14.00,2013-11-07 15:39:00,
2013-11-07 09:49:00,50.9,44.3,30.48,ENE,62,0.0,0.0,78,0.00,,---,0.00,VWS V14.00,2013-11-07 15:49:00,
2013-11-07 09:59:00,51.1,43.4,30.48,ENE,61,0.0,0.0,75,0.00,,---,0.00,VWS V14.00,2013-11-07 15:59:00,
2013-11-07 10:09:00,51.6,43.6,30.48,NE,55,0.0,0.0,74,0.00,,---,0.00,VWS V14.00,2013-11-07 16:09:00,
2013-11-07 10:19:00,52.5,44.5,30.48,NNE,27,0.0,0.0,74,0.00,,---,0.00,VWS V14.00,2013-11-07 16:19:00,
2013-11-07 10:29:00,53.6,44.8,30.48,NNE,23,0.0,0.0,72,0.00,,---,0.00,VWS V14.00,2013-11-07 16:29:00,
2013-11-07 10:39:00,54.3,44.4,30.48,North,3,0.0,0.0,69,0.00,,---,0.00,VWS V14.00,2013-11-07 16:39:00,
2013-11-07 10:49:00,55.0,44.7,30.48,North,2,0.0,0.0,68,0.00,,---,0.00,VWS V14.00,2013-11-07 16:49:00,
2013-11-07 10:59:00,55.9,45.2,30.48,NNE,26,0.0,0.0,67,0.00,,---,0.00,VWS V14.00,2013-11-07 16:59:00,
2013-11-07 11:09:00,56.7,44.6,30.48,NNW,341,0.0,5.4,64,0.00,,---,0.00,VWS V14.00,2013-11-07 17:09:00,
2013-11-07 11:19:00,57.6,44.7,30.48,NE,42,0.0,0.0,62,0.00,,---,0.00,VWS V14.00,2013-11-07 17:19:00,
2013-11-07 11:29:00,58.6,44.8,30.48,NE,53,0.0,3.6,60,0.00,,---,0.00,VWS V14.00,2013-11-07 17:29:00,
2013-11-07 11:39:00,58.8,43.6,30.45,SE,132,0.0,3.1,57,0.00,,---,0.00,VWS V14.00,2013-11-07 17:39:00,
2013-11-07 11:49:00,59.5,43.8,30.45,ESE,119,0.0,2.7,56,0.00,,---,0.00,VWS V14.00,2013-11-07 17:49:00,
2013-11-07 11:59:00,59.7,43.1,30.45,ENE,66,0.0,0.0,54,0.00,,---,0.00,VWS V14.00,2013-11-07 17:59:00,
2013-11-07 12:09:00,60.1,41.9,30.45,ENE,61,0.0,2.7,51,0.00,,---,0.00,VWS V14.00,2013-11-07 18:09:00,
2013-11-07 12:19:00,60.6,41.4,30.45,South,171,0.0,3.1,49,0.00,,---,0.00,VWS V14.00,2013-11-07 18:19:00,
2013-11-07 12:29:00,61.7,41.8,30.45,NE,50,0.0,4.9,48,0.00,,---,0.00,VWS V14.00,2013-11-07 18:29:00,
2013-11-07 12:39:00,62.6,42.1,30.45,NNW,344,0.0,3.1,47,0.00,,---,0.00,VWS V14.00,2013-11-07 18:39:00,
2013-11-07 12:49:00,62.2,41.2,30.45,North,356,0.0,0.0,46,0.00,,---,0.00,VWS V14.00,2013-11-07 18:49:00,
2013-11-07 12:59:00,63.7,42.0,30.42,NNW,328,0.0,4.0,45,0.00,,---,0.00,VWS V14.00,2013-11-07 18:59:00,
2013-11-07 13:09:00,66.7,44.2,30.42,NE,39,0.0,3.6,44,0.00,,---,0.00,VWS V14.00,2013-11-07 19:09:00,
2013-11-07 13:19:00,68.0,44.1,30.42,ENE,66,0.0,0.0,42,0.00,,---,0.00,VWS V14.00,2013-11-07 19:19:00,
2013-11-07 13:29:00,66.0,41.0,30.42,NE,50,0.0,0.0,40,0.00,,---,0.00,VWS V14.00,2013-11-07 19:29:00,
2013-11-07 13:39:00,66.0,41.0,30.42,ENE,66,0.0,4.0,40,0.00,,---,0.00,VWS V14.00,2013-11-07 19:39:00,
2013-11-07 13:49:00,65.7,40.0,30.42,NE,51,0.0,3.6,39,0.00,,---,0.00,VWS V14.00,2013-11-07 19:49:00,
2013-11-07 13:59:00,64.6,38.4,30.40,ENE,66,0.0,0.0,38,0.00,,---,0.00,VWS V14.00,2013-11-07 19:59:00,
2013-11-07 14:09:00,64.8,38.6,30.40,ENE,67,0.0,0.0,38,0.00,,---,0.00,VWS V14.00,2013-11-07 20:09:00,
2013-11-07 14:19:00,65.5,38.5,30.40,ENE,66,0.0,0.0,37,0.00,,---,0.00,VWS V14.00,2013-11-07 20:19:00,
2013-11-07 14:29:00,65.1,38.2,30.40,ENE,62,0.0,0.0,37,0.00,,---,0.00,VWS V14.00,2013-11-07 20:29:00,
2013-11-07 14:39:00,64.4,37.6,30.40,ENE,66,0.0,0.0,37,0.00,,---,0.00,VWS V14.00,2013-11-07 20:39:00,
2013-11-07 14:49:00,64.6,37.8,30.40,ENE,76,0.0,0.0,37,0.00,,---,0.00,VWS V14.00,2013-11-07 20:49:00,
2013-11-07 14:59:00,64.8,37.9,30.40,ENE,66,0.0,0.0,37,0.00,,---,0.00,VWS V14.00,2013-11-07 20:59:00,
2013-11-07 15:09:00,64.6,37.0,30.40,ENE,66,0.0,0.0,36,0.00,,---,0.00,VWS V14.00,2013-11-07 21:09:00,
2013-11-07 15:19:00,64.0,36.6,30.40,ENE,62,0.0,0.0,36,0.00,,---,0.00,VWS V14.00,2013-11-07 21:19:00,
2013-11-07 15:29:00,64.4,36.9,30.40,ENE,67,0.0,0.0,36,0.00,,---,0.00,VWS V14.00,2013-11-07 21:29:00,
2013-11-07 15:39:00,64.2,36.7,30.40,ENE,63,0.0,0.0,36,0.00,,---,0.00,VWS V14.00,2013-11-07 21:39:00,
2013-11-07 15:49:00,64.0,36.6,30.40,ENE,63,0.0,0.0,36,0.00,,---,0.00,VWS V14.00,2013-11-07 21:49:00,
2013-11-07 16:00:00,63.5,36.1,30.40,ENE,61,0.0,0.0,36,0.00,,---,0.00,VWS V14.00,2013-11-07 22:00:00,
2013-11-07 16:09:00,62.8,36.2,30.37,ENE,67,0.0,0.0,37,0.00,,---,0.00,VWS V14.00,2013-11-07 22:09:00,
2013-11-07 16:19:00,61.7,34.5,30.37,ENE,66,0.0,0.0,36,0.00,,---,0.00,VWS V14.00,2013-11-07 22:19:00,
2013-11-07 16:29:00,61.0,34.5,30.40,ENE,66,0.0,0.0,37,0.00,,---,0.00,VWS V14.00,2013-11-07 22:29:00,
2013-11-07 16:39:00,60.3,34.6,30.40,ENE,61,0.0,0.0,38,0.00,,---,0.00,VWS V14.00,2013-11-07 22:39:00,
2013-11-07 16:49:00,59.9,35.5,30.40,ENE,62,0.0,0.0,40,0.00,,---,0.00,VWS V14.00,2013-11-07 22:49:00,
2013-11-07 16:59:00,59.4,36.3,30.40,ENE,66,0.0,0.0,42,0.00,,---,0.00,VWS V14.00,2013-11-07 22:59:00,
2013-11-07 17:09:00,58.6,37.4,30.40,ENE,64,0.0,0.0,45,0.00,,---,0.00,VWS V14.00,2013-11-07 23:09:00,
2013-11-07 17:19:00,58.1,38.0,30.40,ENE,64,0.0,0.0,47,0.00,,---,0.00,VWS V14.00,2013-11-07 23:19:00,
2013-11-07 17:29:00,57.2,37.7,30.37,ENE,66,0.0,0.0,48,0.00,,---,0.00,VWS V14.00,2013-11-07 23:29:00,
2013-11-07 17:39:00,56.7,37.7,30.40,ENE,65,0.0,0.0,49,0.00,,---,0.00,VWS V14.00,2013-11-07 23:39:00,
2013-11-07 17:49:00,55.6,37.2,30.40,ENE,65,0.0,0.0,50,0.00,,---,0.00,VWS V14.00,2013-11-07 23:49:00,
2013-11-07 17:59:00,54.5,36.8,30.40,ENE,64,0.0,0.0,51,0.00,,---,0.00,VWS V14.00,2013-11-07 23:59:00,
2013-11-07 18:09:00,53.6,36.9,30.37,ENE,64,0.0,0.0,53,0.00,,---,0.00,VWS V14.00,2013-11-08 00:09:00,
2013-11-07 18:19:00,52.9,36.7,30.37,ENE,65,0.0,0.0,54,0.00,,---,0.00,VWS V14.00,2013-11-08 00:19:00,
2013-11-07 18:29:00,52.2,36.5,30.37,ENE,65,0.0,0.0,55,0.00,,---,0.00,VWS V14.00,2013-11-08 00:29:00,
2013-11-07 18:39:00,51.8,36.2,30.37,ENE,65,0.0,0.0,55,0.00,,---,0.00,VWS V14.00,2013-11-08 00:39:00,
2013-11-07 18:49:00,51.6,36.9,30.37,ENE,63,0.0,0.0,57,0.00,,---,0.00,VWS V14.00,2013-11-08 00:49:00,
2013-11-07 18:59:00,51.4,37.2,30.37,ENE,64,0.0,0.0,58,0.00,,---,0.00,VWS V14.00,2013-11-08 00:59:00,
2013-11-07 19:09:00,51.1,37.3,30.37,ENE,63,0.0,0.0,59,0.00,,---,0.00,VWS V14.00,2013-11-08 01:09:00,
2013-11-07 19:19:00,50.9,37.5,30.37,ENE,64,0.0,0.0,60,0.00,,---,0.00,VWS V14.00,2013-11-08 01:19:00,
2013-11-07 19:29:00,50.5,37.6,30.40,ENE,65,0.0,0.0,61,0.00,,---,0.00,VWS V14.00,2013-11-08 01:29:00,
2013-11-07 19:39:00,50.2,37.7,30.40,ENE,64,0.0,0.0,62,0.00,,---,0.00,VWS V14.00,2013-11-08 01:39:00,
2013-11-07 19:49:00,50.0,37.9,30.40,ENE,65,0.0,0.0,63,0.00,,---,0.00,VWS V14.00,2013-11-08 01:49:00,
2013-11-07 19:59:00,49.6,38.0,30.37,ENE,63,0.0,0.0,64,0.00,,---,0.00,VWS V14.00,2013-11-08 01:59:00,
2013-11-07 20:09:00,49.5,38.2,30.40,ENE,66,0.0,0.0,65,0.00,,---,0.00,VWS V14.00,2013-11-08 02:09:00,
2013-11-07 20:19:00,49.6,38.8,30.40,ENE,64,0.0,0.0,66,0.00,,---,0.00,VWS V14.00,2013-11-08 02:19:00,
2013-11-07 20:29:00,49.5,39.0,30.37,ENE,64,0.0,0.0,67,0.00,,---,0.00,VWS V14.00,2013-11-08 02:29:00,
2013-11-07 20:39:00,49.5,39.0,30.40,ENE,64,0.0,0.0,67,0.00,,---,0.00,VWS V14.00,2013-11-08 02:39:00,
2013-11-07 20:49:00,49.3,39.2,30.40,ENE,65,0.0,0.0,68,0.00,,---,0.00,VWS V14.00,2013-11-08 02:49:00,
2013-11-07 20:59:00,49.3,39.2,30.40,ENE,63,0.0,0.0,68,0.00,,---,0.00,VWS V14.00,2013-11-08 02:59:00,
2013-11-07 21:09:00,48.9,39.2,30.40,ENE,66,0.0,0.0,69,0.00,,---,0.00,VWS V14.00,2013-11-08 03:09:00,
2013-11-07 21:19:00,48.7,39.4,30.40,ENE,65,0.0,0.0,70,0.00,,---,0.00,VWS V14.00,2013-11-08 03:19:00,
2013-11-07 21:29:00,48.7,39.8,30.40,ENE,66,0.0,0.0,71,0.00,,---,0.00,VWS V14.00,2013-11-08 03:29:00,
2013-11-07 21:39:00,48.6,39.6,30.40,ENE,64,0.0,0.0,71,0.00,,---,0.00,VWS V14.00,2013-11-08 03:39:00,
2013-11-07 21:49:00,48.6,40.0,30.40,ENE,66,0.0,0.0,72,0.00,,---,0.00,VWS V14.00,2013-11-08 03:49:00,
2013-11-07 21:59:00,48.6,40.0,30.40,ENE,64,0.0,0.0,72,0.00,,---,0.00,VWS V14.00,2013-11-08 03:59:00,
2013-11-07 22:09:00,48.4,40.1,30.40,ENE,65,0.0,0.0,73,0.00,,---,0.00,VWS V14.00,2013-11-08 04:09:00,
2013-11-07 22:19:00,48.2,40.0,30.40,ENE,64,0.0,0.0,73,0.00,,---,0.00,VWS V14.00,2013-11-08 04:19:00,
2013-11-07 22:29:00,48.0,39.8,30.40,ENE,65,0.0,0.0,73,0.00,,---,0.00,VWS V14.00,2013-11-08 04:29:00,
2013-11-07 22:40:00,47.8,40.0,30.40,ENE,65,0.0,0.0,74,0.00,,---,0.00,VWS V14.00,2013-11-08 04:40:00,
2013-11-07 22:49:00,47.7,39.8,30.40,ENE,65,0.0,0.0,74,0.00,,---,0.00,VWS V14.00,2013-11-08 04:49:00,
2013-11-07 22:59:00,47.5,39.6,30.40,ENE,64,0.0,0.0,74,0.00,,---,0.00,VWS V14.00,2013-11-08 04:59:00,
2013-11-07 23:09:00,47.3,39.8,30.40,ENE,66,0.0,0.0,75,0.00,,---,0.00,VWS V14.00,2013-11-08 05:09:00,
2013-11-07 23:19:00,47.3,39.8,30.40,ENE,66,0.0,0.0,75,0.00,,---,0.00,VWS V14.00,2013-11-08 05:19:00,
2013-11-07 23:29:00,46.9,39.8,30.37,ENE,64,0.0,0.0,76,0.00,,---,0.00,VWS V14.00,2013-11-08 05:29:00,
2013-11-07 23:39:00,46.9,39.8,30.37,ENE,65,0.0,0.0,76,0.00,,---,0.00,VWS V14.00,2013-11-08 05:39:00,
2013-11-07 23:49:00,46.9,39.8,30.37,ENE,64,0.0,0.0,76,0.00,,---,0.00,VWS V14.00,2013-11-08 05:49:00,
2013-11-07 23:59:00,46.8,39.9,30.37,ENE,64,0.0,0.0,77,0.00,,---,0.00,VWS V14.00,2013-11-08 05:59:00,